status,avgMeasuredTime,avgSpeed,extID,medianMeasuredTime,TIMESTAMP,vehicleCount,_id,REPORT_ID
OK,107,36,707,107,2014-08-01T07:55:00,1,20746431,195578
OK,107,36,707,107,2014-08-01T08:00:00,0,20746762,195578
OK,148,26,707,148,2014-08-01T08:05:00,1,20747211,195578
OK,107,36,707,107,2014-08-01T08:10:00,2,20747584,195578
OK,83,46,707,83,2014-08-01T08:15:00,6,20748033,195578
OK,84,46,707,84,2014-08-01T08:20:00,5,20748482,195578
OK,72,53,707,72,2014-08-01T08:25:00,3,20748931,195578
OK,70,55,707,70,2014-08-01T08:30:00,4,20749380,195578
OK,83,46,707,83,2014-08-01T08:35:00,2,20749829,195578
OK,95,40,707,95,2014-08-01T08:40:00,1,20750278,195578
OK,96,40,707,96,2014-08-01T08:45:00,7,20750727,195578
OK,89,43,707,89,2014-08-01T08:50:00,8,20751176,195578
OK,86,44,707,86,2014-08-01T08:55:00,2,20751625,195578
OK,86,44,707,86,2014-08-01T09:00:00,0,20752074,195578
OK,53,72,707,53,2014-08-01T09:05:00,1,20752523,195578
OK,74,52,707,74,2014-08-01T09:10:00,4,20752972,195578
OK,83,46,707,83,2014-08-01T09:15:00,4,20753421,195578
OK,84,46,707,84,2014-08-01T09:20:00,3,20753870,195578
OK,88,43,707,88,2014-08-01T09:25:00,2,20754319,195578
OK,90,42,707,90,2014-08-01T09:30:00,2,20754768,195578
OK,84,46,707,84,2014-08-01T09:35:00,2,20755217,195578
OK,96,40,707,96,2014-08-01T09:40:00,4,20755666,195578
OK,93,41,707,93,2014-08-01T09:45:00,6,20756115,195578
OK,90,42,707,90,2014-08-01T09:50:00,4,20756564,195578
OK,93,41,707,93,2014-08-01T09:55:00,3,20757013,195578
OK,97,39,707,97,2014-08-01T10:00:00,1,20757462,195578
OK,97,39,707,97,2014-08-01T10:05:00,0,20757911,195578
OK,105,36,707,105,2014-08-01T10:10:00,5,20758360,195578
OK,111,34,707,111,2014-08-01T10:15:00,4,20758809,195578
OK,130,29,707,130,2014-08-01T10:20:00,2,20759258,195578
OK,102,37,707,102,2014-08-01T10:25:00,2,20759707,195578
OK,100,38,707,100,2014-08-01T10:30:00,4,20760156,195578
OK,92,42,707,92,2014-08-01T10:35:00,4,20760605,195578
OK,98,39,707,98,2014-08-01T10:40:00,3,20761054,195578
OK,101,38,707,101,2014-08-01T10:45:00,2,20761503,195578
OK,85,45,707,85,2014-08-01T10:50:00,1,20761952,195578
OK,85,45,707,85,2014-08-01T10:55:00,1,20762401,195578
OK,107,36,707,107,2014-08-01T11:00:00,1,20762850,195578
OK,93,41,707,93,2014-08-01T11:05:00,4,20763299,195578
OK,93,41,707,93,2014-08-01T11:10:00,4,20763748,195578
OK,108,35,707,108,2014-08-01T11:15:00,1,20764197,195578
OK,108,35,707,108,2014-08-01T11:20:00,0,20764645,195578
OK,68,56,707,68,2014-08-01T11:25:00,3,20765094,195578
OK,89,43,707,89,2014-08-01T11:30:00,4,20765543,195578
OK,102,37,707,102,2014-08-01T11:35:00,4,20765992,195578
OK,86,44,707,86,2014-08-01T11:40:00,2,20766441,195578
OK,133,29,707,133,2014-08-01T11:45:00,4,20766890,195578
OK,133,29,707,133,2014-08-01T11:50:00,4,20767339,195578
OK,115,33,707,115,2014-08-01T11:55:00,1,20767788,195578
OK,90,42,707,90,2014-08-01T12:00:00,1,20768237,195578
OK,90,42,707,90,2014-08-01T12:05:00,1,20768686,195578
OK,90,42,707,90,2014-08-01T12:10:00,0,20769135,195578
OK,100,38,707,100,2014-08-01T12:15:00,2,20769584,195578
OK,91,42,707,91,2014-08-01T12:20:00,4,20770033,195578
OK,94,41,707,94,2014-08-01T12:25:00,3,20770482,195578
OK,84,46,707,84,2014-08-01T12:30:00,3,20770931,195578
OK,86,44,707,86,2014-08-01T12:35:00,3,20771380,195578
OK,94,41,707,94,2014-08-01T12:40:00,2,20771829,195578
OK,103,37,707,103,2014-08-01T12:45:00,0,20772278,195578
OK,103,37,707,103,2014-08-01T12:50:00,0,20772727,195578
OK,103,37,707,103,2014-08-01T12:55:00,0,20773176,195578
OK,94,41,707,94,2014-08-01T13:00:00,3,20773625,195578
OK,94,41,707,94,2014-08-01T13:05:00,3,20774074,195578
OK,100,38,707,100,2014-08-01T13:10:00,1,20774523,195578
OK,98,39,707,98,2014-08-01T13:15:00,2,20774972,195578
OK,90,42,707,90,2014-08-01T13:20:00,3,20775421,195578
OK,90,42,707,90,2014-08-01T13:25:00,6,20775870,195578
OK,108,35,707,108,2014-08-01T13:30:00,4,20776319,195578
OK,96,40,707,96,2014-08-01T13:35:00,2,20776768,195578
OK,85,45,707,85,2014-08-01T13:40:00,2,20777217,195578
OK,103,37,707,103,2014-08-01T13:45:00,5,20777666,195578
OK,115,33,707,115,2014-08-01T13:50:00,4,20778115,195578
OK,94,41,707,94,2014-08-01T13:55:00,2,20778564,195578
OK,84,46,707,84,2014-08-01T14:00:00,4,20779013,195578
OK,83,46,707,83,2014-08-01T14:05:00,2,20779462,195578
OK,88,43,707,88,2014-08-01T14:10:00,2,20779911,195578
OK,101,38,707,101,2014-08-01T14:15:00,1,20780360,195578
OK,118,32,707,118,2014-08-01T14:20:00,3,20780809,195578
OK,101,38,707,101,2014-08-01T14:25:00,4,20781258,195578
OK,107,36,707,107,2014-08-01T14:30:00,3,20781707,195578
OK,72,53,707,72,2014-08-01T14:35:00,2,20782156,195578
OK,72,53,707,72,2014-08-01T14:40:00,2,20782605,195578
OK,76,50,707,76,2014-08-01T14:45:00,1,20783054,195578
OK,76,50,707,76,2014-08-01T14:50:00,0,20783503,195578
OK,76,50,707,76,2014-08-01T14:55:00,0,20783952,195578
OK,83,46,707,83,2014-08-01T15:00:00,3,20784401,195578
OK,75,51,707,75,2014-08-01T15:05:00,2,20784850,195578
OK,105,36,707,105,2014-08-01T15:10:00,2,20785299,195578
OK,93,41,707,93,2014-08-01T15:15:00,4,20785748,195578
OK,88,43,707,88,2014-08-01T15:20:00,3,20786197,195578
OK,93,41,707,93,2014-08-01T15:25:00,4,20786646,195578
OK,89,43,707,89,2014-08-01T15:30:00,7,20787095,195578
OK,87,44,707,87,2014-08-01T15:35:00,4,20787544,195578
OK,77,50,707,77,2014-08-01T15:40:00,2,20787993,195578
OK,84,46,707,84,2014-08-01T15:45:00,3,20788442,195578
OK,84,46,707,84,2014-08-01T15:50:00,0,20788891,195578
OK,99,39,707,99,2014-08-01T15:55:00,1,20789340,195578
OK,99,39,707,99,2014-08-01T16:00:00,1,20789789,195578
OK,99,39,707,99,2014-08-01T16:05:00,0,20790238,195578
OK,66,58,707,66,2014-08-01T16:10:00,1,20790687,195578
OK,66,58,707,66,2014-08-01T16:15:00,1,20791136,195578
OK,57,67,707,57,2014-08-01T16:20:00,3,20791585,195578
OK,57,67,707,57,2014-08-01T16:25:00,3,20792034,195578
OK,62,62,707,62,2014-08-01T16:30:00,2,20792483,195578
OK,62,62,707,62,2014-08-01T16:35:00,2,20792932,195578
OK,61,63,707,61,2014-08-01T16:40:00,3,20793381,195578
OK,61,63,707,61,2014-08-01T16:45:00,3,20793830,195578
OK,64,60,707,64,2014-08-01T16:50:00,0,20794279,195578
OK,64,60,707,64,2014-08-01T16:55:00,0,20794728,195578
OK,64,60,707,64,2014-08-01T17:00:00,0,20795177,195578
OK,70,55,707,70,2014-08-01T17:05:00,1,20795626,195578
OK,70,55,707,70,2014-08-01T17:10:00,1,20796075,195578
OK,99,39,707,99,2014-08-01T17:15:00,1,20796524,195578
OK,80,48,707,80,2014-08-01T17:20:00,2,20796973,195578
OK,62,62,707,62,2014-08-01T17:25:00,1,20797422,195578
OK,64,60,707,64,2014-08-01T17:30:00,1,20797871,195578
OK,64,60,707,64,2014-08-01T17:35:00,1,20798320,195578
OK,62,62,707,62,2014-08-01T17:40:00,0,20798769,195578
OK,62,62,707,62,2014-08-01T17:45:00,0,20799218,195578
OK,77,50,707,77,2014-08-01T17:50:00,2,20799667,195578
OK,75,51,707,75,2014-08-01T17:55:00,3,20800116,195578
OK,59,65,707,59,2014-08-01T18:00:00,1,20800565,195578
OK,95,40,707,95,2014-08-01T18:05:00,1,20801014,195578
OK,95,40,707,95,2014-08-01T18:10:00,0,20801463,195578
OK,76,50,707,76,2014-08-01T18:15:00,1,20801912,195578
OK,76,50,707,76,2014-08-01T18:20:00,0,20802361,195578
OK,76,50,707,76,2014-08-01T18:25:00,0,20802810,195578
OK,76,50,707,76,2014-08-01T18:30:00,0,20803259,195578
OK,76,50,707,76,2014-08-01T18:35:00,0,20803708,195578
OK,101,38,707,101,2014-08-01T18:40:00,1,20804157,195578
OK,101,38,707,101,2014-08-01T18:45:00,0,20804606,195578
OK,101,38,707,101,2014-08-01T18:50:00,0,20805055,195578
OK,101,38,707,101,2014-08-01T18:55:00,0,20805504,195578
OK,101,38,707,101,2014-08-01T19:00:00,0,20805953,195578
OK,101,38,707,101,2014-08-01T19:05:00,0,20806402,195578
OK,101,38,707,101,2014-08-01T19:10:00,0,20806851,195578
OK,85,45,707,85,2014-08-01T19:15:00,1,20807300,195578
OK,89,43,707,89,2014-08-01T19:20:00,2,20807749,195578
OK,78,49,707,78,2014-08-01T19:25:00,2,20808198,195578
OK,63,61,707,63,2014-08-01T19:30:00,1,20808647,195578
OK,63,61,707,63,2014-08-01T19:35:00,0,20809096,195578
OK,64,60,707,64,2014-08-01T19:40:00,1,20809545,195578
OK,64,60,707,64,2014-08-01T19:45:00,1,20809994,195578
OK,68,56,707,68,2014-08-01T19:50:00,2,20810443,195578
OK,68,56,707,68,2014-08-01T19:55:00,2,20810892,195578
OK,67,57,707,67,2014-08-01T20:05:00,0,20811511,195578
OK,92,42,707,92,2014-08-01T20:10:00,1,20811714,195578
OK,92,42,707,92,2014-08-01T20:15:00,1,20811920,195578
OK,92,42,707,92,2014-08-01T20:20:00,0,20812129,195578
OK,92,42,707,92,2014-08-01T20:25:00,0,20812347,195578
OK,92,42,707,92,2014-08-01T20:40:00,0,20812972,195578
OK,92,42,707,92,2014-08-01T20:45:00,0,20813180,195578
OK,61,63,707,61,2014-08-01T20:50:00,2,20813391,195578
OK,65,59,707,65,2014-08-01T20:55:00,1,20813621,195578
OK,65,59,707,65,2014-08-01T21:00:00,1,20813859,195578
OK,80,48,707,80,2014-08-01T21:05:00,3,20814035,195578
OK,111,34,707,111,2014-08-01T21:20:00,0,20814678,195578
OK,90,42,707,90,2014-08-01T21:25:00,1,20814907,195578
OK,90,42,707,90,2014-08-01T21:30:00,0,20815183,195578
OK,90,42,707,90,2014-08-01T21:35:00,0,20815416,195578
OK,90,42,707,90,2014-08-01T21:40:00,0,20815640,195578
OK,90,42,707,90,2014-08-01T21:45:00,0,20815877,195578
OK,90,42,707,90,2014-08-01T21:50:00,0,20816118,195578
OK,84,46,707,84,2014-08-01T21:55:00,1,20816353,195578
OK,84,46,707,84,2014-08-01T22:00:00,0,20816621,195578
OK,84,46,707,84,2014-08-01T22:05:00,0,20817070,195578
OK,84,46,707,84,2014-08-01T22:10:00,0,20817392,195578
OK,84,46,707,84,2014-08-01T22:15:00,0,20817821,195578
OK,70,55,707,70,2014-08-01T22:20:00,1,20818111,195578
OK,66,58,707,66,2014-08-01T22:25:00,2,20818427,195578
OK,66,58,707,66,2014-08-01T22:30:00,0,20818761,195578
OK,66,58,707,66,2014-08-01T22:40:00,0,20819245,195578
OK,66,58,707,66,2014-08-01T22:45:00,0,20819533,195578
OK,66,58,707,66,2014-08-01T22:50:00,0,20819768,195578
OK,66,58,707,66,2014-08-01T23:00:00,0,20820197,195578
OK,64,60,707,64,2014-08-01T23:05:00,2,20820450,195578
OK,68,56,707,68,2014-08-01T23:10:00,1,20820680,195578
OK,54,71,707,54,2014-08-01T23:15:00,1,20820868,195578
OK,54,71,707,54,2014-08-01T23:25:00,0,20821296,195578
OK,60,64,707,60,2014-08-01T23:30:00,1,20821522,195578
OK,60,64,707,60,2014-08-01T23:35:00,1,20821767,195578
OK,60,64,707,60,2014-08-01T23:40:00,0,20821946,195578
OK,60,64,707,60,2014-08-01T23:45:00,0,20822169,195578
OK,52,74,707,52,2014-08-01T23:50:00,1,20822436,195578
OK,52,74,707,52,2014-08-01T23:55:00,1,20822762,195578
OK,52,74,707,52,2014-08-02T00:00:00,0,20823060,195578
OK,52,74,707,52,2014-08-02T00:05:00,0,20823509,195578
OK,52,74,707,52,2014-08-02T00:10:00,0,20823958,195578
OK,52,74,707,52,2014-08-02T00:15:00,0,20824407,195578
OK,52,74,707,52,2014-08-02T00:20:00,0,20824856,195578
OK,52,74,707,52,2014-08-02T00:25:00,0,20825305,195578
OK,52,74,707,52,2014-08-02T00:30:00,0,20825754,195578
OK,57,67,707,57,2014-08-02T00:35:00,1,20826203,195578
OK,79,48,707,79,2014-08-02T00:40:00,2,20826652,195578
OK,57,67,707,57,2014-08-02T00:45:00,0,20827101,195578
OK,57,67,707,57,2014-08-02T00:50:00,0,20827550,195578
OK,57,67,707,57,2014-08-02T00:55:00,0,20827999,195578
OK,46,84,707,46,2014-08-02T01:00:00,1,20828448,195578
OK,46,84,707,46,2014-08-02T01:05:00,1,20828897,195578
OK,46,84,707,46,2014-08-02T01:10:00,0,20829346,195578
OK,46,84,707,46,2014-08-02T01:15:00,0,20829795,195578
OK,111,34,707,111,2014-08-02T01:20:00,1,20830244,195578
OK,111,34,707,111,2014-08-02T01:25:00,0,20830693,195578
OK,111,34,707,111,2014-08-02T01:30:00,0,20831142,195578
OK,111,34,707,111,2014-08-02T01:35:00,0,20831591,195578
OK,111,34,707,111,2014-08-02T01:40:00,0,20832040,195578
OK,111,34,707,111,2014-08-02T01:45:00,0,20832489,195578
OK,111,34,707,111,2014-08-02T01:50:00,0,20832938,195578
OK,111,34,707,111,2014-08-02T01:55:00,0,20833387,195578
OK,111,34,707,111,2014-08-02T02:00:00,0,20833836,195578
OK,50,77,707,50,2014-08-02T02:05:00,1,20834285,195578
OK,50,77,707,50,2014-08-02T02:10:00,1,20834734,195578
OK,50,77,707,50,2014-08-02T02:15:00,0,20835183,195578
OK,50,77,707,50,2014-08-02T02:20:00,0,20835632,195578
OK,50,77,707,50,2014-08-02T02:25:00,0,20836081,195578
OK,50,77,707,50,2014-08-02T02:30:00,0,20836530,195578
OK,50,77,707,50,2014-08-02T02:35:00,0,20836979,195578
OK,50,77,707,50,2014-08-02T02:40:00,0,20837428,195578
OK,50,77,707,50,2014-08-02T02:45:00,0,20837877,195578
OK,50,77,707,50,2014-08-02T02:50:00,0,20838326,195578
OK,50,77,707,50,2014-08-02T02:55:00,0,20838775,195578
OK,50,77,707,50,2014-08-02T03:00:00,0,20839224,195578
OK,50,77,707,50,2014-08-02T03:05:00,0,20839673,195578
OK,50,77,707,50,2014-08-02T03:10:00,0,20840122,195578
OK,50,77,707,50,2014-08-02T03:15:00,0,20840571,195578
OK,50,77,707,50,2014-08-02T03:20:00,0,20841020,195578
OK,50,77,707,50,2014-08-02T03:25:00,0,20841469,195578
OK,50,77,707,50,2014-08-02T03:30:00,0,20841918,195578
OK,50,77,707,50,2014-08-02T03:35:00,0,20842367,195578
OK,50,77,707,50,2014-08-02T03:40:00,0,20842816,195578
OK,50,77,707,50,2014-08-02T03:45:00,0,20843265,195578
OK,50,77,707,50,2014-08-02T03:50:00,0,20843714,195578
OK,50,77,707,50,2014-08-02T03:55:00,0,20844163,195578
OK,50,77,707,50,2014-08-02T04:00:00,0,20844612,195578
OK,50,77,707,50,2014-08-02T04:05:00,0,20844743,195578
OK,50,77,707,50,2014-08-02T04:10:00,0,20845073,195578
OK,84,46,707,84,2014-08-02T04:15:00,1,20845253,195578
OK,84,46,707,84,2014-08-02T04:20:00,0,20845609,195578
OK,93,41,707,93,2014-08-02T04:30:00,1,20846165,195578
OK,93,41,707,93,2014-08-02T04:35:00,0,20846532,195578
OK,93,41,707,93,2014-08-02T04:40:00,0,20846915,195578
OK,93,41,707,93,2014-08-02T04:45:00,0,20847174,195578
OK,93,41,707,93,2014-08-02T04:50:00,0,20847540,195578
OK,93,41,707,93,2014-08-02T04:55:00,0,20847897,195578
OK,93,41,707,93,2014-08-02T05:00:00,0,20848257,195578
OK,93,41,707,93,2014-08-02T05:05:00,0,20848421,195578
OK,93,41,707,93,2014-08-02T05:10:00,0,20848775,195578
OK,93,41,707,93,2014-08-02T05:15:00,0,20848967,195578
OK,93,41,707,93,2014-08-02T05:20:00,0,20849311,195578
OK,93,41,707,93,2014-08-02T05:35:00,0,20850108,195578
OK,93,41,707,93,2014-08-02T05:40:00,0,20850401,195578
OK,93,41,707,93,2014-08-02T05:45:00,0,20850702,195578
OK,93,41,707,93,2014-08-02T05:50:00,0,20851060,195578
OK,93,41,707,93,2014-08-02T05:55:00,0,20851314,195578
OK,93,41,707,93,2014-08-02T06:00:00,0,20851617,195578
OK,113,34,707,113,2014-08-02T06:05:00,2,20852066,195578
OK,113,34,707,113,2014-08-02T06:10:00,2,20852515,195578
OK,113,34,707,113,2014-08-02T06:15:00,0,20852964,195578
OK,113,34,707,113,2014-08-02T06:20:00,0,20853413,195578
OK,113,34,707,113,2014-08-02T06:25:00,0,20853862,195578
OK,113,34,707,113,2014-08-02T06:30:00,0,20854311,195578
OK,113,34,707,113,2014-08-02T06:35:00,0,20854760,195578
OK,88,43,707,88,2014-08-02T06:40:00,1,20855209,195578
OK,88,43,707,88,2014-08-02T06:45:00,1,20855658,195578
OK,88,43,707,88,2014-08-02T06:50:00,0,20856107,195578
OK,82,47,707,82,2014-08-02T06:55:00,1,20856556,195578
OK,82,47,707,82,2014-08-02T07:00:00,1,20857005,195578
OK,82,47,707,82,2014-08-02T07:05:00,0,20857454,195578
OK,82,47,707,82,2014-08-02T07:10:00,0,20857903,195578
OK,82,47,707,82,2014-08-02T07:15:00,0,20858352,195578
OK,82,47,707,82,2014-08-02T07:20:00,0,20858801,195578
OK,82,47,707,82,2014-08-02T07:25:00,0,20859250,195578
OK,82,47,707,82,2014-08-02T07:30:00,0,20859699,195578
OK,82,47,707,82,2014-08-02T07:35:00,0,20860148,195578
OK,82,47,707,82,2014-08-02T07:40:00,0,20860597,195578
OK,82,47,707,82,2014-08-02T07:45:00,0,20861046,195578
OK,82,47,707,82,2014-08-02T07:50:00,0,20861495,195578
OK,85,45,707,85,2014-08-02T07:55:00,1,20861944,195578
OK,85,45,707,85,2014-08-02T08:00:00,1,20862393,195578
OK,85,45,707,85,2014-08-02T08:05:00,0,20862842,195578
OK,129,29,707,129,2014-08-02T08:10:00,1,20863291,195578
OK,129,29,707,129,2014-08-02T08:15:00,1,20863740,195578
OK,129,29,707,129,2014-08-02T08:20:00,0,20864189,195578
OK,129,29,707,129,2014-08-02T08:25:00,0,20864638,195578
OK,129,29,707,129,2014-08-02T08:30:00,0,20865087,195578
OK,96,40,707,96,2014-08-02T08:35:00,1,20865536,195578
OK,96,40,707,96,2014-08-02T08:40:00,1,20865985,195578
OK,107,36,707,107,2014-08-02T08:45:00,1,20866434,195578
OK,107,36,707,107,2014-08-02T08:50:00,0,20866883,195578
OK,83,46,707,83,2014-08-02T08:55:00,1,20867332,195578
OK,89,43,707,89,2014-08-02T09:00:00,1,20867781,195578
OK,89,43,707,89,2014-08-02T09:05:00,1,20868230,195578
OK,92,42,707,92,2014-08-02T09:10:00,4,20868679,195578
OK,90,42,707,90,2014-08-02T09:15:00,5,20869128,195578
OK,88,43,707,88,2014-08-02T09:20:00,1,20869577,195578
OK,88,43,707,88,2014-08-02T09:25:00,0,20870026,195578
OK,88,43,707,88,2014-08-02T09:30:00,0,20870475,195578
OK,90,42,707,90,2014-08-02T09:35:00,1,20870924,195578
OK,90,42,707,90,2014-08-02T09:40:00,1,20871373,195578
OK,92,42,707,92,2014-08-02T09:45:00,1,20871822,195578
OK,92,42,707,92,2014-08-02T09:50:00,1,20872271,195578
OK,83,46,707,83,2014-08-02T09:55:00,1,20872720,195578
OK,96,40,707,96,2014-08-02T10:00:00,2,20873169,195578
OK,96,40,707,96,2014-08-02T10:05:00,2,20873618,195578
OK,101,38,707,101,2014-08-02T10:10:00,1,20874067,195578
OK,92,42,707,92,2014-08-02T10:15:00,2,20874516,195578
OK,86,44,707,86,2014-08-02T10:20:00,3,20874965,195578
OK,105,36,707,105,2014-08-02T10:25:00,4,20875414,195578
OK,106,36,707,106,2014-08-02T10:30:00,2,20875863,195578
OK,65,59,707,65,2014-08-02T10:35:00,1,20876312,195578
OK,65,59,707,65,2014-08-02T10:40:00,1,20876761,195578
OK,65,59,707,65,2014-08-02T10:45:00,0,20877210,195578
OK,65,59,707,65,2014-08-02T10:50:00,0,20877659,195578
OK,65,59,707,65,2014-08-02T10:55:00,0,20878108,195578
OK,96,40,707,96,2014-08-02T11:00:00,2,20878557,195578
OK,96,40,707,96,2014-08-02T11:05:00,2,20879006,195578
OK,89,43,707,89,2014-08-02T11:10:00,0,20879455,195578
OK,89,43,707,89,2014-08-02T11:15:00,0,20879904,195578
OK,89,43,707,89,2014-08-02T11:20:00,0,20880353,195578
OK,117,33,707,117,2014-08-02T11:25:00,2,20880802,195578
OK,113,34,707,113,2014-08-02T11:30:00,2,20881251,195578
OK,102,37,707,102,2014-08-02T11:35:00,1,20881700,195578
OK,91,42,707,91,2014-08-02T11:40:00,1,20882149,195578
OK,100,38,707,100,2014-08-02T11:45:00,3,20882598,195578
OK,100,38,707,100,2014-08-02T11:50:00,2,20883047,195578
OK,93,41,707,93,2014-08-02T11:55:00,1,20883496,195578
OK,107,36,707,107,2014-08-02T12:00:00,2,20883945,195578
OK,115,33,707,115,2014-08-02T12:05:00,3,20884394,195578
OK,89,43,707,89,2014-08-02T12:10:00,5,20884843,195578
OK,89,43,707,89,2014-08-02T12:15:00,8,20885292,195578
OK,89,43,707,89,2014-08-02T12:20:00,3,20885741,195578
OK,103,37,707,103,2014-08-02T12:25:00,4,20886190,195578
OK,101,38,707,101,2014-08-02T12:30:00,5,20886639,195578
OK,97,39,707,97,2014-08-02T12:35:00,1,20887088,195578
OK,97,39,707,97,2014-08-02T12:40:00,0,20887537,195578
OK,97,39,707,97,2014-08-02T12:45:00,0,20887986,195578
OK,128,30,707,128,2014-08-02T12:50:00,1,20888435,195578
OK,130,29,707,130,2014-08-02T12:55:00,1,20888884,195578
OK,130,29,707,130,2014-08-02T13:00:00,0,20889333,195578
OK,130,29,707,130,2014-08-02T13:05:00,0,20889782,195578
OK,93,41,707,93,2014-08-02T13:10:00,1,20890231,195578
OK,93,41,707,93,2014-08-02T13:15:00,1,20890680,195578
OK,93,41,707,93,2014-08-02T13:20:00,0,20891129,195578
OK,96,40,707,96,2014-08-02T13:25:00,2,20891578,195578
OK,77,50,707,77,2014-08-02T13:30:00,4,20892027,195578
OK,94,41,707,94,2014-08-02T13:35:00,2,20892476,195578
OK,130,29,707,130,2014-08-02T13:40:00,1,20892925,195578
OK,112,34,707,112,2014-08-02T13:45:00,1,20893374,195578
OK,112,34,707,112,2014-08-02T13:50:00,1,20893823,195578
OK,112,34,707,112,2014-08-02T13:55:00,0,20894272,195578
OK,112,34,707,112,2014-08-02T14:00:00,0,20894721,195578
OK,112,34,707,112,2014-08-02T14:05:00,0,20895170,195578
OK,86,44,707,86,2014-08-02T14:10:00,1,20895619,195578
OK,112,34,707,112,2014-08-02T14:15:00,0,20896068,195578
OK,112,34,707,112,2014-08-02T14:20:00,0,20896517,195578
OK,125,30,707,125,2014-08-02T14:25:00,1,20896966,195578
OK,125,30,707,125,2014-08-02T14:30:00,1,20897415,195578
OK,86,44,707,86,2014-08-02T14:35:00,1,20897864,195578
OK,76,50,707,76,2014-08-02T14:40:00,2,20898313,195578
OK,97,39,707,97,2014-08-02T14:45:00,1,20898762,195578
OK,97,39,707,97,2014-08-02T14:50:00,3,20899211,195578
OK,108,35,707,108,2014-08-02T14:55:00,1,20899660,195578
OK,93,41,707,93,2014-08-02T15:00:00,1,20900109,195578
OK,93,41,707,93,2014-08-02T15:05:00,1,20900558,195578
OK,93,41,707,93,2014-08-02T15:10:00,0,20901007,195578
OK,93,41,707,93,2014-08-02T15:15:00,0,20901456,195578
OK,105,36,707,105,2014-08-02T15:20:00,2,20901905,195578
OK,105,36,707,105,2014-08-02T15:25:00,2,20902354,195578
OK,105,36,707,105,2014-08-02T15:30:00,0,20902803,195578
OK,105,36,707,105,2014-08-02T15:35:00,0,20903252,195578
OK,105,36,707,105,2014-08-02T15:40:00,0,20903701,195578
OK,105,36,707,105,2014-08-02T15:45:00,0,20904150,195578
OK,105,36,707,105,2014-08-02T15:50:00,0,20904599,195578
OK,130,29,707,130,2014-08-02T15:55:00,2,20905048,195578
OK,91,42,707,91,2014-08-02T16:00:00,1,20905497,195578
OK,100,38,707,100,2014-08-02T16:05:00,2,20905946,195578
OK,113,34,707,113,2014-08-02T16:10:00,2,20906395,195578
OK,118,32,707,118,2014-08-02T16:15:00,3,20906844,195578
OK,87,44,707,87,2014-08-02T16:20:00,3,20907293,195578
OK,87,44,707,87,2014-08-02T16:25:00,1,20907742,195578
OK,87,44,707,87,2014-08-02T16:30:00,0,20908191,195578
OK,87,44,707,87,2014-08-02T16:35:00,0,20908640,195578
OK,102,37,707,102,2014-08-02T16:40:00,3,20909089,195578
OK,91,42,707,91,2014-08-02T16:45:00,3,20909538,195578
OK,93,41,707,93,2014-08-02T16:50:00,2,20909987,195578
OK,96,40,707,96,2014-08-02T16:55:00,1,20910436,195578
OK,96,40,707,96,2014-08-02T17:00:00,0,20910885,195578
OK,82,47,707,82,2014-08-02T17:05:00,1,20911334,195578
OK,111,34,707,111,2014-08-02T17:10:00,1,20911783,195578
OK,111,34,707,111,2014-08-02T17:15:00,1,20912232,195578
OK,111,34,707,111,2014-08-02T17:20:00,0,20912681,195578
OK,80,48,707,80,2014-08-02T17:25:00,1,20913130,195578
OK,80,48,707,80,2014-08-02T17:30:00,1,20913579,195578
OK,80,48,707,80,2014-08-02T17:35:00,0,20914028,195578
OK,80,48,707,80,2014-08-02T17:40:00,0,20914477,195578
OK,80,48,707,80,2014-08-02T17:45:00,0,20914926,195578
OK,80,48,707,80,2014-08-02T17:50:00,0,20915375,195578
OK,91,42,707,91,2014-08-02T17:55:00,1,20915824,195578
OK,91,42,707,91,2014-08-02T18:00:00,1,20916273,195578
OK,91,42,707,91,2014-08-02T18:05:00,0,20916722,195578
OK,91,42,707,91,2014-08-02T18:10:00,0,20917171,195578
OK,91,42,707,91,2014-08-02T18:15:00,0,20917620,195578
OK,91,42,707,91,2014-08-02T18:20:00,0,20918069,195578
OK,91,42,707,91,2014-08-02T18:25:00,0,20918518,195578
OK,91,42,707,91,2014-08-02T18:30:00,0,20918967,195578
OK,91,42,707,91,2014-08-02T18:35:00,0,20919416,195578
OK,91,42,707,91,2014-08-02T18:40:00,0,20919865,195578
OK,91,42,707,91,2014-08-02T18:45:00,0,20920314,195578
OK,112,34,707,112,2014-08-02T18:50:00,1,20920763,195578
OK,122,31,707,122,2014-08-02T18:55:00,1,20921212,195578
OK,122,31,707,122,2014-08-02T19:00:00,1,20921661,195578
OK,122,31,707,122,2014-08-02T19:05:00,0,20922110,195578
OK,122,31,707,122,2014-08-02T19:10:00,0,20922559,195578
OK,122,31,707,122,2014-08-02T19:15:00,0,20923008,195578
OK,88,43,707,88,2014-08-02T19:20:00,1,20923457,195578
OK,88,43,707,88,2014-08-02T19:25:00,1,20923906,195578
OK,88,43,707,88,2014-08-02T19:30:00,0,20924355,195578
OK,88,43,707,88,2014-08-02T19:35:00,0,20924804,195578
OK,88,43,707,88,2014-08-02T19:40:00,0,20925253,195578
OK,88,43,707,88,2014-08-02T19:45:00,0,20925702,195578
OK,88,43,707,88,2014-08-02T19:50:00,0,20926151,195578
OK,86,44,707,86,2014-08-02T19:55:00,1,20926600,195578
OK,86,44,707,86,2014-08-02T20:00:00,0,20927049,195578
OK,86,44,707,86,2014-08-02T20:05:00,0,20927498,195578
OK,86,44,707,86,2014-08-02T20:10:00,0,20927947,195578
OK,86,44,707,86,2014-08-02T20:15:00,0,20928396,195578
OK,86,44,707,86,2014-08-02T20:20:00,0,20928845,195578
OK,86,44,707,86,2014-08-02T20:25:00,0,20929294,195578
OK,86,44,707,86,2014-08-02T20:30:00,0,20929743,195578
OK,86,44,707,86,2014-08-02T20:35:00,0,20930192,195578